Location: Jetmore Motorplex
(37.9889°N, 99.8876°W)
Time: 18:00:02
(UTC+00:00)

USA 229 DEB - Pass Details

Date: 17 February 2020
Orbit: 988 x 1224 km, 63.4° (Epoch: 26 March)

Event Time Altitude Azimuth Distance (km) Brightness Sun altitude
Rises 01:12:50 0° 191° (S) 3,683 6.8 -11.2°
Reaches altitude 10° 01:15:28 10° 185° (S) 2,747 6.0 -11.8°
Maximum altitude 01:21:32 45° 115° (ESE) 1,352 3.9 -12.9°
Drops below altitude 10° 01:27:50 10° 45° (NE) 2,864 5.5 -14.2°
Enters shadow 01:28:07 - 44° (NE) 2,962 5.6 -14.2°
